Tracking 28081 objects as of 27-Sep-2023
HD Live streaming from Space Station
objects crossing your sky now

NOAA 17 DEB

Track NOAA 17 DEB now!
10-day predictions


NORAD ID: 48739
Int'l Code: 2002-032BZ
Perigee: 684.8 km
Apogee: 755.3 km
Inclination: 98.8 °
Period: 99.0 minutes
Semi major axis: 7091 km
RCS: Unknown
Launch date: June 24, 2002
Source: United States (US)
Launch site: AIR FORCE WESTERN TEST RANGE (AFWTR)

Note: This is SATELLITE DEBRIS
Your satellite tracking list
Your tracking list is empty




NASA's NSSDC Master Catalog

Two Line Element Set (TLE):
1 48739U 02032BY  23269.18163436  .00022370  00000-0  52256-2 0  9998
2 48739  98.7952 256.0291 0049728 119.6104 241.0058 14.53915799132188
Source of the keplerian elements: AFSPC